Theta_e
325 325 326 326 326 327 326 325 325 325 325 325 325 325 325 325 324 324 325 325 325 325 325 325 325 325 326 326 326 325 322 313 311 309 302 302 313 334 335 338 334 332 326 303 301 301 299 299 302 299 302 300 301 302 302 300 298 299 294 287 290 287 288 290 291 290 292 292 293 291 292 296 294 294 298 296 296 294 296 299 298 303 307 308 312 313 313 316
324 325 325 326 326 325 325 325 325 324 324 324 324 324 324 324 323 323 323 324 324 324 325 325 325 325 325 326 326 325 315 309 306 305 304 316 332 336 337 335 335 333 316 304 302 297 298 298 298 298 298 298 300 301 302 301 299 292 288 290 291 287 291 292 291 292 293 296 292 292 289 295 295 294 296 296 294 293 297 297 296 301 302 307 314 313 314 322
325 325 325 325 325 325 324 324 324 324 324 324 324 324 323 323 323 323 323 323 324 323 324 325 325 325 325 325 325 321 309 305 302 301 305 330 336 337 336 335 337 331 304 302 298 298 300 299 297 298 294 296 295 299 297 299 299 292 295 294 287 291 291 290 290 292 292 291 292 292 291 292 294 294 295 297 293 293 295 294 296 297 299 303 308 312 318 322
325 325 325 325 324 324 324 324 324 324 323 324 323 323 322 322 322 322 323 323 323 323 323 324 324 325 324 324 324 313 302 298 297 298 301 332 336 335 335 334 333 324 300 298 296 296 295 297 295 298 295 294 293 296 298 298 299 295 293 289 293 290 294 293 289 289 289 291 291 291 289 292 293 292 295 292 295 294 293 292 299 298 298 302 308 313 319 321
324 324 324 324 323 323 323 323 324 323 323 323 322 322 322 322 321 321 322 322 322 323 323 323 324 325 324 323 321 308 298 291 293 297 306 333 336 335 336 336 327 307 301 296 298 296 299 297 294 292 295 293 294 295 293 295 295 294 294 292 292 289 293 292 288 290 288 289 291 288 294 294 292 293 291 293 294 293 296 298 296 298 299 305 311 315 319 321
323 323 323 323 323 322 322 323 323 322 322 322 322 321 321 321 320 321 321 321 322 322 323 323 324 324 324 322 308 302 295 285 297 305 321 333 335 336 335 333 326 300 300 299 297 296 300 299 300 297 291 294 294 294 293 292 294 297 291 288 289 289 293 291 289 289 288 290 291 291 294 292 293 293 288 292 296 294 293 294 293 295 299 309 314 316 319 320
322 323 322 322 322 322 322 322 322 322 322 321 321 320 320 320 320 320 320 321 321 321 322 323 324 324 322 319 305 299 294 293 302 309 328 331 335 334 331 327 317 301 300 299 297 298 294 295 295 291 289 288 290 291 292 292 291 292 294 289 292 289 292 289 290 287 287 290 291 291 292 293 291 294 291 291 295 294 293 290 291 290 309 314 315 316 319 320
322 322 321 321 322 322 322 322 322 321 321 321 320 319 319 320 320 320 320 320 321 321 322 322 323 324 320 306 303 299 298 296 304 308 324 333 328 323 314 304 302 302 301 300 297 295 296 297 296 290 290 292 291 292 292 294 293 293 292 290 290 289 291 288 286 286 286 288 289 289 293 293 289 292 290 291 295 294 292 299 300 306 310 311 314 316 318 320
321 320 321 321 321 321 321 322 321 320 320 320 319 319 319 320 320 319 319 320 320 321 321 322 323 322 321 300 296 294 294 301 306 311 311 317 313 308 305 307 302 301 297 297 297 296 299 293 292 294 293 289 291 292 290 293 292 289 292 289 290 291 290 289 288 287 288 289 289 292 291 290 289 290 293 294 293 290 290 301 304 307 309 310 313 316 317 318
320 320 320 320 320 320 321 321 321 320 319 319 319 319 319 319 320 319 319 320 320 321 321 322 323 322 308 299 294 289 296 308 310 306 306 309 306 307 305 304 300 299 300 298 295 296 298 294 296 294 293 290 291 292 288 292 290 289 289 289 291 290 290 290 292 290 289 291 288 292 290 291 291 291 291 291 291 288 297 298 300 306 308 310 311 314 316 318
320 320 320 320 320 320 321 321 320 319 319 320 319 319 319 319 319 319 319 319 320 320 321 322 322 317 302 294 292 289 304 309 309 306 304 306 305 305 305 302 300 300 299 298 297 296 297 296 295 294 298 293 292 289 290 293 290 290 290 290 290 287 290 289 290 290 290 294 289 291 290 291 291 291 291 291 291 289 295 299 300 299 304 308 309 311 313 315
320 320 320 320 320 320 321 321 320 319 319 319 319 319 319 319 318 318 319 319 320 321 321 321 320 307 295 292 291 294 301 309 307 305 305 305 305 305 305 302 301 301 300 298 300 300 295 295 296 293 293 293 291 290 292 291 292 289 292 292 288 285 294 290 293 291 290 293 291 290 292 291 291 291 291 288 287 292 294 297 296 299 300 302 306 308 310 314
320 320 320 319 319 320 320 320 319 318 319 319 318 318 318 318 318 318 318 319 320 320 321 320 314 305 300 293 294 300 306 307 306 305 305 305 304 303 304 304 302 298 298 300 299 300 295 297 296 296 294 292 289 290 291 290 287 290 288 285 288 286 287 291 288 289 291 292 289 290 287 285 286 291 291 289 287 289 294 293 293 297 298 299 300 306 309 310
319 319 319 319 319 319 320 319 318 318 319 318 318 318 318 318 318 318 318 318 320 321 320 319 310 300 296 291 302 307 306 307 305 306 305 306 303 305 302 303 302 300 302 300 299 297 297 295 297 294 294 293 292 297 292 287 287 291 288 285 284 287 285 288 289 288 292 291 288 290 287 284 283 285 290 288 287 292 292 291 290 290 291 293 295 300 306 309
318 318 318 318 318 318 318 318 318 318 318 317 317 318 317 317 318 318 318 318 319 321 320 315 304 298 292 293 302 307 319 306 305 306 304 304 301 302 302 303 302 302 302 302 301 299 298 299 299 294 294 292 294 292 286 284 283 282 287 286 283 284 285 285 289 287 291 293 288 289 285 288 288 289 285 288 286 289 292 291 290 288 289 290 292 294 297 304
318 318 318 318 318 318 318 317 317 318 317 317 317 318 318 317 317 319 319 319 320 321 313 307 304 294 290 293 304 317 305 302 303 305 305 303 303 304 301 301 302 300 300 299 299 299 298 300 295 291 292 292 290 288 285 287 284 280 286 281 284 283 282 285 291 286 288 291 291 289 287 283 290 290 288 285 287 288 290 289 289 289 289 290 291 292 294 296
318 318 317 318 318 317 317 316 316 317 316 317 318 317 317 317 318 319 319 319 316 314 310 303 303 298 291 298 305 302 300 302 304 305 304 304 304 302 301 300 299 298 299 299 298 300 297 295 292 292 289 289 285 288 286 283 280 286 280 282 280 282 282 284 286 288 288 290 291 288 288 285 288 287 287 286 290 290 290 291 290 290 290 290 290 291 292 294
318 318 317 317 317 317 316 316 316 315 316 317 315 316 315 318 321 319 315 311 310 309 306 306 299 295 292 299 294 297 300 302 305 303 303 303 300 300 299 297 298 297 298 298 298 296 295 293 291 291 288 287 288 287 285 282 286 283 283 282 283 281 280 282 286 288 289 288 289 288 287 290 291 292 293 292 288 289 291 292 292 291 291 292 291 291 291 293
318 317 317 317 317 316 316 316 315 315 316 317 317 318 319 320 311 306 304 301 296 293 292 295 292 286 285 291 297 301 303 305 303 303 303 304 302 300 300 298 298 298 293 291 293 295 293 292 292 289 287 284 288 288 288 284 284 285 285 285 281 283 284 283 282 282 288 288 288 286 289 289 290 291 293 292 288 290 290 289 289 290 291 291 291 292 292 293
318 317 317 317 316 316 315 315 315 315 316 314 313 311 300 297 298 298 301 299 291 291 293 294 292 292 295 296 300 303 305 303 302 300 304 303 301 300 297 297 296 293 292 291 293 293 291 288 287 286 288 289 289 287 286 284 286 284 282 280 281 281 281 282 283 286 285 288 287 287 286 286 289 291 293 294 290 290 290 292 292 292 292 292 292 292 293 293
317 317 317 316 316 315 315 314 315 315 316 312 312 297 290 293 288 287 294 296 296 295 293 296 295 295 296 299 300 300 300 298 300 301 304 307 303 300 294 294 292 289 287 288 292 292 291 287 286 287 287 289 287 284 285 285 283 285 283 284 282 283 284 285 288 286 285 288 285 281 284 287 288 290 291 291 289 290 291 291 291 292 292 292 292 292 293 294
316 317 316 316 315 315 314 314 315 315 315 310 307 293 289 292 295 295 295 289 294 297 295 296 297 299 301 301 302 300 297 296 299 301 304 303 301 296 292 291 288 290 289 290 290 290 287 287 288 287 285 284 283 284 283 285 283 281 284 281 283 282 281 284 285 286 285 288 284 282 286 289 290 291 292 291 292 292 291 291 293 292 293 292 292 292 292 292
316 316 316 315 314 314 314 315 315 315 310 307 302 296 294 297 301 301 297 292 291 296 296 296 296 297 298 301 302 301 295 292 294 298 302 302 298 294 293 290 288 288 289 290 289 286 285 285 288 285 285 287 283 284 285 283 282 282 281 283 282 282 285 285 286 286 285 286 287 285 285 289 289 287 288 289 289 290 289 289 290 290 292 293 294 293 292 292
316 316 316 314 314 314 314 314 315 311 307 307 299 296 299 298 299 300 295 290 290 295 297 297 297 297 297 299 302 296 294 293 295 297 301 300 296 295 293 288 288 288 289 287 289 289 285 287 286 285 286 289 286 284 286 285 285 283 283 281 282 284 283 283 285 284 282 285 283 284 285 286 281 283 283 285 283 283 284 284 285 286 289 291 291 291 292 292
316 316 315 315 314 315 314 315 308 306 308 306 302 303 301 299 298 297 291 287 288 292 298 298 300 299 301 305 303 298 293 296 298 300 300 299 293 293 292 289 289 287 288 284 287 287 287 286 284 286 286 285 286 284 284 286 283 285 283 283 283 283 285 283 284 284 279 284 282 282 283 278 279 282 282 283 283 287 285 286 288 287 286 285 286 288 289 290
316 315 315 314 314 314 315 306 306 307 304 302 301 301 301 299 297 296 291 284 282 287 294 291 301 295 305 299 299 296 297 293 296 299 303 299 299 294 292 290 289 288 284 287 288 285 284 286 285 286 286 285 286 285 284 286 282 284 286 284 282 284 284 284 284 283 280 281 284 280 282 276 280 283 284 282 282 286 288 286 287 286 286 287 288 289 289 289
316 315 315 314 314 315 307 300 308 306 300 300 304 303 300 299 297 295 288 279 280 290 288 295 295 295 301 297 299 295 287 288 300 299 299 302 298 298 293 288 287 287 286 287 286 285 285 285 284 284 285 285 285 283 285 286 284 284 283 282 283 285 285 284 283 283 281 280 285 279 278 278 280 284 283 281 282 286 286 287 286 288 288 290 291 291 292 292
316 315 315 315 314 314 304 305 305 302 299 299 300 303 301 299 293 290 283 274 274 292 289 288 295 299 301 297 296 291 290 295 293 296 298 299 298 293 289 288 290 289 287 286 282 285 285 285 284 285 284 282 285 284 284 286 285 283 283 283 284 285 282 281 282 280 280 282 282 278 283 281 277 282 282 281 286 284 286 285 286 288 290 290 291 292 292 292
315 315 314 314 315 313 308 307 305 301 301 298 301 303 300 295 291 288 278 272 285 285 299 291 303 300 295 297 293 291 292 293 289 293 296 297 297 295 288 286 286 286 285 286 285 285 287 286 287 288 287 284 283 284 283 286 287 285 282 282 281 281 281 281 279 282 279 277 273 280 280 277 278 279 282 281 285 285 286 285 285 287 288 289 290 291 291 292
315 315 315 315 314 311 309 307 304 302 300 301 301 300 297 294 290 283 275 269 289 283 289 293 294 291 293 291 289 289 292 290 292 294 294 294 294 292 291 290 290 288 287 286 284 285 287 288 288 286 286 284 284 284 283 284 285 285 283 287 283 280 279 278 277 277 276 273 275 277 277 279 277 281 282 285 286 284 283 285 287 288 288 289 289 289 290 290
315 315 315 315 308 310 310 302 305 304 303 301 299 297 295 289 282 276 269 279 287 286 288 289 288 295 291 289 288 288 290 288 294 293 292 293 291 290 290 291 289 284 284 283 285 283 287 287 288 286 285 284 285 286 285 283 283 284 284 281 285 282 278 277 271 275 273 268 270 276 277 278 276 276 282 282 283 282 285 289 289 290 290 289 289 289 289 289
315 315 315 312 311 314 307 303 307 306 303 300 298 295 292 279 281 277 274 288 282 283 284 285 286 291 292 292 289 288 290 290 290 291 291 288 287 288 289 286 287 280 281 282 282 283 285 286 285 288 287 287 286 287 285 287 282 283 283 286 279 272 269 274 268 274 272 269 279 276 277 278 279 281 284 283 284 284 283 286 288 288 287 288 289 289 288 288
315 314 315 313 312 309 311 309 308 306 303 299 297 292 285 279 273 281 279 283 279 285 285 288 287 290 291 289 287 287 288 289 290 290 288 288 288 287 287 288 286 285 281 282 283 282 283 282 286 288 289 288 288 286 283 284 283 283 286 281 277 271 269 266 261 261 266 272 275 278 277 277 279 282 286 288 290 287 284 284 285 285 286 286 287 287 287 288
315 314 311 311 311 311 310 309 307 306 303 300 292 287 281 274 276 289 282 280 282 283 285 284 287 288 290 289 287 290 288 287 290 289 290 287 287 286 288 287 286 285 283 282 284 282 277 279 284 288 286 288 288 287 290 287 285 285 283 286 283 272 268 267 265 273 272 271 272 274 274 273 277 283 285 284 285 284 283 284 284 283 283 284 284 284 285 288
314 313 311 311 310 309 309 308 307 307 302 295 290 286 279 278 280 280 281 280 281 283 284 288 289 287 286 284 287 289 288 285 287 288 287 287 285 285 286 288 286 283 285 285 282 280 283 280 283 286 286 288 289 288 286 286 286 283 280 282 280 281 277 269 266 266 264 269 270 274 275 277 281 284 285 284 283 285 283 284 284 286 284 283 288 291 291 292
312 310 312 309 309 309 310 310 307 304 299 291 287 282 280 283 276 281 283 285 284 283 284 286 285 286 283 284 286 289 290 288 288 287 286 287 287 287 288 287 288 288 287 285 283 279 280 281 284 284 285 287 288 286 288 288 285 285 283 279 281 281 279 270 267 270 270 268 271 269 277 281 281 284 285 279 284 288 285 286 287 289 285 286 290 291 291 292
307 309 305 308 309 311 310 309 307 302 296 290 286 281 285 283 282 282 290 286 285 289 287 283 283 284 283 282 286 287 288 290 286 285 285 287 286 286 286 288 289 288 289 288 283 283 283 281 284 285 287 288 287 286 286 284 286 284 279 283 282 282 281 278 273 265 262 269 271 271 276 277 275 280 282 282 285 286 284 284 285 286 286 290 292 292 293 293
306 306 306 306 309 311 310 309 306 300 294 289 284 288 282 284 286 286 287 286 286 285 284 284 283 285 283 284 283 287 286 288 286 286 284 287 284 290 288 288 288 291 290 286 287 285 285 279 284 284 286 288 286 288 289 287 286 284 282 285 285 279 277 277 272 268 267 266 265 268 272 273 277 280 280 284 284 285 285 284 284 286 288 291 292 293 292 292
306 304 298 305 309 310 309 308 304 297 291 286 284 286 288 286 287 284 285 288 287 284 285 282 283 285 285 284 285 286 288 284 286 285 284 284 283 286 291 290 287 289 290 287 287 284 285 280 280 285 285 287 287 287 284 285 286 284 285 283 284 280 276 274 276 271 273 267 265 269 268 277 278 279 280 283 282 286 284 283 284 286 290 292 292 292 292 292
302 299 297 307 310 310 309 307 299 295 289 284 285 282 284 287 288 287 286 287 285 283 283 283 283 283 284 284 287 286 286 286 286 286 285 285 286 287 288 291 289 287 289 287 286 288 284 282 276 284 286 286 284 285 285 286 283 281 282 281 284 279 282 280 277 275 275 266 265 264 268 271 277 279 282 286 283 282 283 286 285 288 290 292 293 293 292 291
300 298 296 308 308 308 308 303 295 289 288 284 285 284 285 287 286 288 287 287 287 288 283 283 284 284 282 283 284 286 285 284 286 286 285 285 287 284 287 291 290 288 287 287 287 286 284 282 280 282 282 283 283 284 284 285 287 286 285 283 286 280 278 276 278 276 267 272 268 263 274 272 280 280 285 285 282 280 282 286 288 289 290 291 291 291 290 292
297 290 293 306 308 308 303 294 292 289 282 282 285 286 286 295 287 287 288 287 287 287 289 284 283 283 283 286 286 286 285 284 285 286 285 285 288 287 287 289 289 291 291 287 288 287 286 282 283 278 282 285 285 286 284 283 285 285 285 285 286 283 281 274 274 275 271 274 269 267 269 274 281 280 280 282 281 280 281 283 289 289 290 289 290 290 290 289
293 291 302 304 308 305 300 292 291 288 283 283 288 288 287 287 286 287 287 288 287 287 287 286 285 284 284 284 285 285 288 284 286 286 287 288 286 288 287 288 290 291 293 285 288 285 290 282 279 279 280 281 284 285 284 283 286 287 285 282 283 284 284 281 274 275 278 271 272 268 268 277 280 280 280 281 281 280 280 281 289 289 289 288 289 291 290 292
292 292 296 304 307 303 296 287 287 288 285 287 286 287 288 289 287 286 287 287 287 289 287 287 286 289 286 284 285 286 288 283 285 286 285 286 288 288 286 289 292 290 292 288 290 291 285 283 284 274 274 278 279 285 285 284 285 280 282 282 284 280 279 277 275 273 272 276 276 276 272 275 281 281 282 282 283 283 284 282 285 290 288 289 289 289 287 287
292 294 294 298 303 300 291 290 288 288 286 286 285 285 287 287 288 288 287 288 286 286 287 287 287 287 285 285 286 286 289 287 281 286 287 283 287 287 289 288 292 292 291 292 295 293 286 283 283 278 276 274 273 274 278 281 284 282 279 280 284 285 280 280 278 275 275 273 277 272 276 279 278 282 284 284 284 286 285 285 286 287 289 290 289 288 289 287
287 284 289 292 297 295 293 294 290 287 287 287 285 285 285 286 288 289 288 289 287 289 289 288 287 288 285 286 285 285 286 285 284 283 286 284 284 286 286 287 288 290 291 294 292 292 282 283 285 285 283 281 283 284 285 285 282 282 283 283 283 285 283 283 279 275 279 276 276 278 281 282 282 283 283 285 284 287 288 286 289 290 287 286 285 287 287 287
289 285 285 283 291 290 288 291 287 288 286 291 285 286 285 285 287 290 292 289 290 290 289 290 288 287 286 286 285 285 285 286 283 284 285 285 283 285 286 287 287 288 293 292 292 287 281 283 284 285 285 286 285 284 283 288 285 286 284 282 284 283 282 283 282 282 282 277 274 280 282 281 283 281 282 284 284 285 289 290 290 287 287 288 288 286 288 286
284 286 288 290 287 284 284 284 288 287 288 290 287 288 285 286 286 286 290 290 291 291 289 290 290 289 289 287 286 282 284 284 284 283 283 281 285 287 287 288 287 289 290 289 289 288 284 284 285 284 284 284 280 282 283 286 286 285 285 284 282 283 282 282 284 286 282 282 281 285 282 282 283 284 286 286 288 289 290 291 291 289 287 286 286 287 287 287
288 286 286 290 286 286 287 288 288 288 288 290 287 288 285 287 286 288 288 289 289 290 290 286 288 288 287 287 287 283 285 282 282 283 281 282 283 284 284 286 288 287 288 287 287 284 287 281 284 284 284 284 281 281 282 285 283 283 284 284 285 283 283 285 285 287 284 284 286 285 281 284 286 286 287 289 289 291 290 287 286 287 288 287 287 287 287 286
284 284 283 286 286 285 287 288 287 287 285 290 286 287 287 287 286 288 289 289 286 287 289 288 285 287 287 287 286 284 286 286 286 285 283 286 282 283 285 284 284 286 287 286 286 286 287 281 286 282 281 282 282 281 282 283 283 282 282 284 284 285 285 285 286 286 286 285 286 283 280 282 284 285 287 288 288 287 285 287 289 288 286 287 287 287 287 287
289 288 289 285 283 283 286 288 286 286 285 286 285 287 288 288 288 290 289 290 289 288 288 289 288 288 287 287 286 286 287 289 287 288 289 289 287 288 288 286 289 286 285 285 285 287 286 280 281 281 279 278 279 281 280 280 281 280 280 282 283 283 282 284 284 287 284 283 285 282 282 284 287 286 288 287 286 287 288 288 288 288 287 287 288 287 287 287
288 289 289 287 282 287 285 285 287 287 283 287 287 288 288 288 289 292 288 292 292 293 293 291 290 292 287 288 288 290 290 289 291 290 291 290 290 288 290 289 290 289 285 287 284 285 284 282 280 278 278 277 279 278 278 278 277 275 278 282 284 285 286 286 286 285 286 288 284 282 284 290 287 289 289 287 286 288 288 288 288 289 288 287 288 288 288 287
Wind_Speed
21 19 18 17 17 18 18 18 17 16 16 15 15 15 14 14 15 13 12 12 12 12 10 10 9 7 6 6 7 6 6 4 2 1 1 7 5 6 5 5 12 12 9 5 5 5 1 1 4 2 3 4 3 2 1 4 2 1 2 5 1 1 2 6 6 10 1 2 3 4 6 6 2 0 1 2 3 2 1 1 3 1 5 3 2 3 5 3
20 19 18 18 18 19 19 18 16 16 16 16 16 16 15 15 14 13 12 12 12 12 10 10 9 8 7 6 7 8 6 2 1 1 11 1 5 7 8 8 8 11 10 5 8 5 7 1 1 3 4 3 2 1 0 0 2 4 2 3 4 5 3 7 5 6 3 1 2 3 2 4 4 6 2 2 1 1 1 2 2 3 3 1 4 3 3 8
20 19 19 20 19 18 18 18 16 17 16 16 16 15 14 13 12 11 11 11 11 11 10 9 8 8 7 7 7 7 3 2 1 5 9 8 5 8 8 8 6 8 7 5 5 9 9 10 7 6 3 5 6 2 3 1 2 1 3 2 3 9 2 5 3 6 1 4 5 5 2 2 1 3 1 1 1 1 4 4 2 3 7 7 2 2 8 9
19 19 19 19 18 19 17 16 17 16 17 16 16 14 14 13 12 11 10 10 10 9 9 8 8 8 7 7 7 4 3 4 2 3 2 8 10 8 8 7 6 4 3 2 7 5 4 7 4 5 3 6 2 1 2 1 1 1 3 3 2 4 1 1 6 2 4 2 5 4 2 1 1 3 2 3 3 3 7 8 8 10 11 8 5 7 8 10
20 20 21 19 19 18 17 17 17 17 17 16 14 14 10 13 12 11 9 10 10 10 9 9 9 8 7 7 6 3 6 3 5 1 3 4 9 9 8 7 6 5 2 8 9 6 6 6 4 4 4 1 2 2 1 1 1 4 1 1 1 1 0 1 4 1 3 0 8 5 8 5 2 1 2 7 5 6 7 6 10 9 5 10 11 12 10 11
19 20 20 21 19 18 18 18 17 18 16 16 15 14 12 10 10 10 11 10 11 10 9 9 9 8 8 7 4 1 5 5 1 1 4 2 6 9 7 6 6 6 9 5 5 5 8 2 5 3 2 3 3 6 1 1 1 3 1 0 2 1 0 1 1 2 4 3 6 6 3 3 4 1 1 4 9 4 4 1 4 6 5 4 7 12 11 11
20 19 20 18 18 17 17 17 17 16 16 16 15 13 11 11 12 11 11 11 9 9 9 10 9 9 9 7 2 4 3 4 1 2 3 3 5 8 8 6 8 7 5 6 5 5 4 5 5 4 5 4 1 3 1 2 2 4 2 1 1 2 1 2 1 1 2 8 5 2 1 2 3 4 1 3 9 3 1 2 5 4 5 8 11 13 16 16
19 19 18 16 17 16 17 17 17 16 16 15 15 13 12 13 12 11 10 10 9 9 9 9 9 9 10 3 4 0 0 4 0 2 2 4 6 7 8 4 5 4 5 8 7 5 6 8 8 3 5 7 4 6 2 5 2 2 0 2 1 1 1 2 1 3 2 2 0 3 5 0 4 2 1 7 10 5 6 4 3 4 5 5 9 13 12 13
17 17 16 15 16 15 15 18 17 17 16 15 14 14 13 12 12 10 10 9 9 9 9 8 8 8 7 2 4 5 5 2 2 1 4 7 3 5 5 4 1 5 4 3 0 9 8 3 4 5 4 2 1 7 2 7 3 3 1 4 2 1 1 0 4 3 2 2 2 5 0 2 3 1 3 10 6 4 5 1 4 5 5 7 10 12 12 12
18 18 17 16 15 15 14 14 17 17 16 16 16 15 14 13 12 10 9 9 8 7 7 8 7 6 3 3 3 5 3 1 0 3 6 7 5 4 4 3 5 7 6 1 4 5 3 6 8 5 12 4 3 3 2 3 2 4 5 3 5 1 1 3 2 1 1 2 1 4 1 0 1 1 6 1 2 7 1 2 1 4 9 9 7 8 9 10
18 18 18 17 16 16 15 13 16 16 16 16 16 15 14 13 11 10 8 7 6 6 7 7 6 5 2 3 7 6 2 3 0 2 6 7 7 4 4 5 5 5 5 2 4 4 1 10 4 5 1 3 4 0 2 1 5 5 9 5 6 4 3 2 3 2 1 1 1 3 2 0 1 2 7 2 5 4 2 0 1 3 5 6 7 7 6 7
19 17 17 17 16 16 14 14 15 16 16 16 15 14 13 12 10 9 7 6 6 6 7 5 5 3 2 4 6 4 3 2 2 3 5 5 3 3 4 4 3 6 7 5 4 3 4 8 7 2 3 3 2 2 1 2 3 3 1 4 3 5 1 6 1 2 2 0 0 0 2 1 1 7 5 5 5 2 1 1 3 5 4 4 5 6 6 8
18 17 16 16 16 15 14 17 16 15 15 14 13 12 12 11 10 9 7 5 6 6 6 5 3 2 3 2 4 4 1 2 4 7 4 4 4 2 3 1 2 3 3 6 4 4 4 9 6 9 1 6 5 2 4 7 2 3 8 4 3 2 2 2 1 2 0 0 0 1 3 6 9 11 7 3 6 3 0 3 4 4 5 5 5 6 7 6
17 17 17 16 15 14 16 17 17 14 15 14 12 12 11 10 10 9 7 5 6 7 6 5 3 1 3 2 1 2 1 2 4 6 3 1 3 1 3 3 4 3 2 7 3 3 6 2 10 9 2 5 3 1 6 3 4 7 1 4 2 3 4 2 1 5 4 1 2 1 3 7 6 5 1 2 1 0 2 4 5 5 5 6 6 6 8 9
18 17 17 16 15 14 15 17 17 16 15 13 12 11 11 11 10 9 8 6 6 7 7 4 1 2 2 0 2 3 5 2 4 1 2 4 4 3 1 3 7 6 4 6 4 1 3 7 9 4 2 2 5 5 3 3 4 3 6 2 1 5 4 5 1 3 4 1 4 3 3 8 8 8 5 2 3 3 4 5 6 6 6 6 6 7 8 10
17 17 17 16 16 15 15 15 15 16 15 13 12 10 9 10 9 9 8 6 9 7 2 2 1 3 5 1 1 4 2 3 4 1 0 3 3 2 3 6 1 3 3 4 2 3 4 7 8 3 4 3 7 8 5 3 2 5 2 1 3 1 4 4 0 2 1 0 3 2 6 4 3 2 2 3 4 2 0 5 6 7 8 7 7 8 8 9
17 17 17 16 17 16 15 13 12 13 13 12 12 10 8 7 8 9 8 7 4 2 2 3 1 1 4 0 3 1 2 1 1 1 0 1 3 7 5 3 2 5 5 4 3 4 6 7 3 2 5 6 3 6 8 1 0 4 3 2 3 5 2 2 3 1 3 1 4 3 2 6 4 7 7 5 1 1 4 6 7 7 7 7 6 7 8 9
18 18 17 17 17 17 16 14 13 13 13 12 9 9 7 9 12 11 6 3 1 3 2 1 2 2 3 1 3 4 1 3 2 4 2 1 4 4 3 3 0 5 5 4 4 3 3 2 2 5 2 2 3 4 8 10 11 9 4 3 0 0 3 3 2 1 1 1 4 1 3 11 12 9 10 6 2 3 7 7 7 7 7 7 7 7 9 9
17 18 18 18 18 16 16 14 16 15 14 13 11 10 12 11 4 2 4 1 3 3 2 4 5 6 4 8 1 4 1 3 4 3 2 3 1 3 4 3 5 7 3 4 1 3 2 5 4 5 6 3 7 8 9 5 5 8 8 7 4 6 4 3 5 3 0 1 3 4 8 7 9 10 11 4 1 3 8 6 8 9 8 8 8 8 8 9
18 18 19 20 17 16 15 17 18 19 19 11 8 7 3 4 2 2 1 2 2 1 1 4 2 2 2 3 5 0 1 2 4 4 1 2 3 4 5 1 3 6 5 5 1 2 1 6 7 9 10 10 6 3 4 3 7 6 4 4 3 5 1 3 2 1 0 1 5 5 6 6 11 11 12 10 2 5 8 11 10 9 8 8 8 9 9 10
20 19 21 18 16 17 18 18 18 17 18 7 8 5 6 11 13 6 4 1 1 0 1 1 1 1 1 2 0 6 7 2 2 1 1 1 1 8 1 2 2 3 2 1 5 1 3 5 8 5 5 7 7 9 9 9 5 7 6 5 2 2 3 0 1 2 2 2 2 2 3 10 12 11 12 7 1 9 11 11 11 12 9 8 9 10 10 10
22 21 20 18 17 18 19 18 19 17 13 3 2 2 1 3 1 2 7 3 1 1 3 1 1 3 1 2 1 2 3 4 3 1 1 1 1 6 2 4 4 7 0 3 4 3 3 9 4 5 4 10 6 5 4 7 6 4 5 4 2 4 3 3 1 1 3 1 5 2 3 10 11 11 11 8 10 8 6 8 7 5 8 7 8 9 9 7
21 21 19 19 18 19 20 18 17 15 6 5 4 1 3 2 2 4 5 5 4 1 2 1 2 2 2 3 1 1 2 3 5 2 2 0 2 1 6 5 5 4 1 3 9 5 3 5 4 5 7 10 4 4 9 8 6 6 5 4 5 2 4 3 3 1 3 2 2 1 5 11 8 7 11 12 7 7 6 7 10 7 10 12 10 4 6 9
21 20 20 19 19 20 18 17 14 8 3 3 1 6 2 1 1 1 6 3 3 0 1 0 1 2 3 4 3 3 3 1 4 7 2 2 6 2 6 4 6 5 7 5 8 10 6 1 0 8 5 10 7 2 7 6 2 2 3 4 4 2 3 2 2 0 0 1 2 1 4 8 4 5 6 1 4 5 6 5 6 8 8 9 9 9 9 12
21 20 20 19 18 19 18 16 7 4 4 1 5 5 5 3 0 0 8 2 4 1 1 1 2 1 2 1 1 1 1 2 1 0 1 4 4 4 3 1 4 4 4 3 5 4 1 1 4 7 4 4 7 3 4 8 1 0 4 6 5 5 7 1 1 3 3 1 5 3 3 3 4 7 9 9 8 8 4 5 7 5 6 5 7 9 7 7
21 20 20 19 19 19 20 10 6 6 8 7 5 4 4 2 1 1 7 3 3 1 1 4 0 3 2 0 2 2 4 1 1 2 1 2 2 4 2 2 1 7 3 6 7 3 2 1 2 7 7 5 6 6 5 5 6 3 4 5 3 7 7 7 4 3 1 1 2 1 3 5 6 6 4 5 8 12 9 3 7 7 6 4 5 7 8 8
22 21 21 21 21 22 12 4 7 10 6 6 8 4 3 2 2 1 4 5 1 4 5 1 1 1 2 0 2 4 6 3 0 2 2 3 1 1 6 4 3 3 3 2 2 3 2 1 5 5 5 6 5 4 4 8 8 5 1 6 8 8 8 6 6 2 1 1 1 5 3 1 6 9 4 5 6 9 8 8 7 6 6 5 5 5 6 7
22 22 21 22 21 15 2 6 12 10 6 1 1 6 4 4 1 3 6 4 3 3 4 2 1 2 1 0 5 2 1 2 4 2 0 3 0 3 3 8 7 9 3 5 8 1 4 4 4 5 2 4 8 4 4 7 7 2 1 4 6 7 6 7 6 5 0 0 5 3 2 0 4 8 4 4 4 5 8 6 7 6 5 5 6 6 6 6
22 22 22 20 22 13 7 7 8 9 4 1 1 5 4 3 3 8 5 3 0 3 4 6 2 2 2 0 4 1 1 3 2 1 3 1 4 2 2 4 6 7 4 2 7 2 2 4 7 6 8 7 2 1 1 6 4 1 6 7 7 8 7 5 5 5 1 2 5 3 3 3 7 7 6 3 1 8 8 6 5 4 4 5 6 8 8 7
22 22 22 21 16 7 3 3 6 3 2 2 1 4 3 3 4 3 3 6 4 2 1 1 3 6 2 7 1 5 2 2 2 0 3 2 2 6 3 3 5 5 2 6 7 3 1 3 3 4 4 3 5 3 1 2 2 10 4 8 7 9 5 4 7 3 3 1 6 2 3 1 3 5 6 2 3 2 2 2 2 3 4 4 3 4 6 7
23 22 20 20 10 6 5 3 6 1 1 2 2 4 5 7 5 4 5 7 4 1 2 1 3 4 9 11 5 1 4 1 1 3 3 1 2 4 3 4 4 6 5 5 3 4 2 1 1 0 3 3 3 5 4 3 5 6 3 5 7 5 7 5 5 5 2 5 3 1 1 0 6 5 4 8 3 5 3 3 0 3 4 5 5 6 6 6
20 20 21 13 6 7 6 2 3 5 2 3 1 6 7 4 2 7 4 1 3 5 6 5 3 8 15 11 9 7 7 2 0 4 8 5 6 8 7 8 6 6 1 5 4 1 2 3 1 3 3 7 4 10 4 0 3 4 7 8 8 1 4 2 2 2 5 5 1 2 2 1 8 10 3 4 6 6 8 7 4 4 6 6 6 7 6 5
19 17 18 8 7 5 1 3 3 6 4 2 2 2 5 6 9 9 2 6 2 6 7 4 8 9 12 10 7 4 1 7 3 1 4 0 6 3 1 2 5 6 9 5 5 3 2 1 1 1 2 4 5 12 2 1 1 4 9 8 7 2 2 3 3 1 5 6 5 1 1 3 4 9 12 15 13 6 6 10 7 5 6 6 7 7 6 5
19 17 11 5 4 3 3 5 4 7 6 1 2 5 6 5 8 7 5 3 2 2 6 4 4 3 12 14 9 9 5 1 6 2 2 5 6 6 5 2 4 2 7 2 7 7 5 3 6 7 2 3 1 3 11 8 10 7 1 7 8 7 6 4 4 5 5 5 2 4 1 6 4 2 1 5 5 3 3 5 5 5 6 6 7 6 3 3
19 13 9 5 2 0 4 4 6 6 5 3 4 8 12 11 7 11 8 4 2 2 3 2 10 9 5 7 0 3 4 3 2 5 2 7 8 6 10 9 4 5 2 10 3 2 7 3 2 2 2 2 7 1 3 6 6 0 3 5 5 7 6 2 3 3 1 1 1 1 5 4 4 1 6 5 5 5 3 5 3 4 1 4 2 4 4 3
15 8 8 6 5 2 4 4 5 3 6 5 6 7 13 12 6 4 7 5 3 6 5 7 3 7 2 2 2 6 4 4 6 5 3 6 4 10 6 4 9 10 10 9 5 4 3 4 1 6 3 1 1 0 1 1 8 4 5 4 4 2 11 7 2 1 1 4 5 2 7 6 8 8 4 2 0 2 0 0 1 2 1 1 5 4 4 3
9 9 9 8 6 4 5 6 6 5 2 4 9 12 10 1 2 3 4 9 7 15 9 12 5 8 8 7 7 8 4 5 3 5 6 3 3 5 4 6 4 6 5 10 1 3 10 3 2 3 1 1 0 0 2 6 1 9 2 7 2 2 6 5 3 2 4 3 6 2 8 5 2 5 4 2 2 6 3 2 4 0 1 6 5 5 4 4
8 7 6 7 4 6 6 7 7 4 3 6 13 19 4 4 0 2 1 7 6 5 7 8 1 6 8 8 6 9 4 8 8 3 5 8 4 7 9 4 4 11 8 2 5 4 7 3 1 1 0 4 1 0 5 2 3 2 2 4 6 2 2 2 5 1 1 2 4 3 3 5 6 6 2 2 6 6 6 3 3 4 6 7 6 5 2 0
7 8 6 6 3 7 6 7 5 6 6 8 12 12 1 0 0 2 3 4 5 5 9 4 6 4 5 10 5 5 9 10 9 8 8 4 6 4 15 9 5 3 6 6 2 1 1 5 1 1 2 1 2 2 9 3 3 2 2 4 0 3 2 4 6 3 5 4 2 6 3 6 7 7 6 5 10 10 7 4 5 7 10 8 7 7 5 4
9 6 3 2 5 5 9 8 6 5 5 16 14 4 0 1 1 2 2 3 4 4 4 6 2 7 3 3 8 9 6 5 13 7 5 3 8 1 7 5 6 5 8 1 2 3 3 1 4 1 2 2 3 4 9 11 10 2 2 3 1 1 2 4 1 3 4 5 5 2 4 5 7 7 7 10 4 3 6 8 6 8 8 8 9 8 6 5
1 2 3 1 5 4 9 7 6 10 12 3 4 2 0 1 2 0 1 1 2 2 3 5 7 7 6 5 2 2 4 4 6 7 4 2 9 5 7 10 9 9 4 2 4 2 3 2 7 2 3 5 5 1 2 5 5 8 11 11 12 9 5 4 6 3 2 3 4 5 9 6 10 3 8 7 6 5 5 6 10 8 8 8 6 5 5 5
4 7 4 1 3 8 11 10 5 1 3 5 7 2 2 1 2 2 1 0 3 1 1 5 2 5 5 6 7 8 7 5 3 5 4 8 7 5 2 6 6 13 13 10 11 2 5 3 9 5 6 5 1 0 1 1 0 2 2 6 6 2 6 4 6 6 3 0 4 3 1 9 6 4 5 6 4 5 4 4 8 8 8 7 5 3 2 2
3 5 1 2 1 8 10 7 2 2 3 2 1 2 1 1 3 3 3 1 1 1 1 1 5 5 2 3 2 5 12 6 11 12 6 9 4 5 4 9 11 10 6 2 5 3 4 5 5 2 1 2 3 2 1 1 1 1 3 2 5 9 7 6 3 6 8 2 1 1 2 8 4 1 5 5 5 5 4 5 7 8 5 5 3 2 1 3
2 3 2 1 2 2 9 14 14 13 3 1 2 1 1 1 2 3 2 1 2 1 3 2 0 1 4 2 4 9 9 4 4 5 3 1 4 2 6 10 17 8 11 10 12 9 6 4 10 3 3 2 3 1 1 2 1 4 4 5 3 3 6 3 5 1 3 9 9 8 7 7 3 3 3 1 2 2 3 6 5 8 5 4 4 1 1 1
2 2 3 2 2 2 7 0 6 7 3 5 4 4 2 1 1 2 3 4 0 2 3 1 1 3 1 1 4 2 8 7 3 6 1 1 2 1 3 8 10 10 2 2 3 8 3 4 9 9 11 9 7 6 9 11 12 3 0 4 6 9 8 5 4 2 5 3 7 5 7 6 6 4 3 1 2 1 1 4 4 3 5 6 4 2 1 2
1 5 1 4 3 3 4 1 2 4 8 7 5 3 2 2 1 2 4 1 3 2 1 3 1 4 3 4 4 4 8 1 2 4 8 4 2 1 2 4 5 2 2 5 7 10 3 1 7 9 13 14 14 12 1 9 6 5 8 11 9 6 7 4 6 5 10 4 7 8 8 1 3 3 3 4 3 7 9 5 8 8 5 4 2 1 1 2
1 3 3 4 4 4 2 3 1 2 6 7 6 3 5 4 2 1 1 1 3 3 1 1 3 5 2 6 5 6 7 6 2 4 6 7 1 1 3 3 3 3 1 4 8 6 3 4 7 8 11 11 6 2 5 10 11 11 10 10 10 10 10 10 10 13 7 11 7 9 11 8 11 4 6 7 5 4 7 10 9 5 5 6 4 2 3 3
2 1 2 1 2 6 5 3 3 3 2 5 4 5 5 5 3 4 1 1 0 0 3 1 1 1 11 13 6 4 4 4 4 4 2 1 4 0 3 3 3 2 2 2 1 4 6 8 7 6 10 7 2 4 6 6 8 8 11 10 11 12 11 13 15 13 10 11 16 16 8 9 9 8 11 12 12 12 14 15 11 6 4 3 4 6 5 4
2 2 2 3 2 2 2 4 9 4 2 4 1 6 7 10 10 3 3 1 1 2 0 4 6 6 5 3 6 5 8 6 6 3 4 4 5 4 2 2 1 2 2 2 2 1 4 5 6 6 10 8 3 3 3 8 3 4 9 12 14 14 16 17 17 16 13 14 17 7 10 18 10 10 12 13 11 11 6 2 4 5 6 6 6 7 7 7
0 2 2 1 3 3 2 6 7 8 6 4 5 6 7 10 10 2 1 4 4 4 1 2 3 4 4 5 3 6 8 6 8 10 4 7 0 1 5 5 5 1 0 4 4 2 5 5 7 4 5 7 5 1 2 4 6 6 4 7 12 15 17 19 18 18 14 14 12 1 3 11 6 7 7 5 5 2 2 6 10 7 4 7 9 8 8 8
1 0 1 5 3 1 2 5 6 7 5 2 4 3 4 11 12 8 2 1 4 6 5 7 5 4 1 3 2 1 3 3 3 8 12 13 13 10 9 5 8 8 4 3 1 1 3 3 2 4 6 5 1 7 4 4 2 1 3 6 10 13 13 14 16 13 10 11 12 6 8 15 7 9 6 6 5 7 10 9 7 7 8 8 9 9 9 8
1 0 1 1 3 1 4 2 2 6 5 5 6 4 3 6 2 9 2 2 2 4 8 9 9 8 2 4 6 6 6 3 3 2 7 1 3 4 1 3 11 12 9 9 1 6 5 6 5 4 6 6 3 1 6 5 3 3 7 12 20 19 17 13 9 2 9 15 12 11 17 19 5 14 13 8 6 9 10 7 7 8 7 9 11 11 10 9
Wind_Direction
178 179 178 178 178 182 180 180 179 176 181 180 184 185 183 182 182 180 182 196 200 192 194 192 185 171 167 154 140 136 128 122 111 149 165 238 200 161 155 111 144 143 131 101 97 109 60 60 113 339 62 61 315 75 282 54 31 56 75 110 77 213 137 199 174 189 201 115 207 176 210 126 209 156 159 106 37 49 322 255 304 221 249 224 259 300 296 247
176 179 175 176 182 179 175 177 171 175 178 182 183 183 179 182 182 177 185 189 193 193 191 187 176 168 154 150 141 157 129 104 129 211 219 189 170 140 126 130 143 140 114 112 151 150 131 186 184 66 90 58 314 56 356 358 66 89 120 89 206 189 236 162 198 182 122 282 159 171 203 168 204 144 223 125 273 1 154 281 12 322 291 283 302 296 213 171
176 175 173 176 180 174 172 170 171 174 176 178 180 177 176 179 175 177 178 182 191 193 189 180 171 159 152 144 155 160 112 50 31 254 249 185 172 139 136 138 155 155 149 157 199 152 163 179 178 100 12 101 2 133 52 335 56 202 115 180 254 207 234 211 184 188 204 142 130 143 182 142 182 152 150 209 171 40 208 217 300 263 251 210 250 148 172 168
174 174 169 175 172 169 166 167 173 175 174 172 174 173 175 174 174 173 169 183 192 191 187 175 166 156 149 155 143 172 82 67 247 242 283 181 159 142 139 147 150 134 80 71 149 123 108 88 82 94 72 73 313 40 98 306 105 217 85 160 230 196 119 242 200 233 200 144 141 126 102 158 232 203 163 178 118 259 265 232 190 212 224 202 198 174 170 169
167 172 167 167 169 166 165 171 173 174 170 170 168 170 156 167 166 171 176 185 193 193 180 173 166 157 150 152 159 178 94 53 262 239 284 187 149 142 140 145 135 122 131 138 90 79 111 125 96 40 85 124 6 40 53 356 115 103 193 194 179 98 55 284 208 266 140 185 110 128 132 209 105 93 128 156 181 229 211 244 216 226 209 164 173 178 172 174
163 169 166 162 164 167 169 170 172 170 167 170 168 147 146 154 165 179 181 187 192 188 179 172 168 157 146 145 127 86 108 186 255 321 313 154 142 138 137 134 134 117 127 113 121 141 117 66 97 109 31 83 167 136 222 141 331 169 319 342 188 208 161 290 286 228 142 124 136 144 200 97 143 181 181 176 211 228 231 265 257 248 191 174 150 158 174 176
164 164 165 161 156 166 169 171 170 167 168 163 164 155 148 166 178 174 182 186 187 183 177 176 163 151 149 132 84 90 182 267 21 293 349 127 137 129 132 121 123 130 127 105 135 133 132 114 93 157 97 69 297 116 184 137 22 103 174 118 196 190 17 285 267 148 118 131 176 191 63 133 132 209 117 221 242 202 164 278 264 267 157 148 149 177 177 185
162 163 165 158 152 164 170 169 167 165 162 161 166 168 167 172 169 174 172 183 183 180 178 171 166 160 160 132 112 219 75 256 191 322 4 94 98 105 102 76 130 131 131 158 149 127 134 135 146 160 71 142 202 124 205 91 19 123 204 176 128 87 270 319 334 118 140 105 109 113 133 293 183 175 76 248 251 267 293 1 82 105 132 164 167 180 192 195
162 159 156 155 153 164 169 166 166 166 166 168 166 169 170 165 164 162 173 173 179 176 173 165 169 183 193 74 115 117 239 243 208 23 65 100 107 117 119 132 160 148 141 90 295 159 129 233 121 189 206 127 173 96 223 128 297 166 148 120 120 97 333 183 66 54 92 110 103 96 36 327 244 274 248 244 273 284 285 75 118 125 149 185 191 189 187 195
162 157 157 156 155 161 170 165 164 165 167 167 169 168 168 163 157 164 167 165 164 168 166 164 174 175 167 116 66 168 257 177 259 43 114 120 109 115 15 155 131 130 126 194 96 136 144 196 162 184 124 63 129 110 180 133 208 133 107 109 109 331 308 354 155 4 318 99 290 142 213 152 330 72 277 312 249 322 79 64 339 165 182 201 206 205 208 197
160 160 160 157 157 162 165 169 164 164 169 168 167 164 162 160 156 155 151 155 154 166 164 166 174 163 186 100 130 210 173 108 169 102 125 128 121 152 199 169 164 130 118 181 185 189 184 152 161 121 23 204 123 40 115 177 126 83 133 119 48 349 79 11 80 22 298 34 359 143 158 254 318 107 229 236 336 308 171 78 355 244 229 212 220 221 224 232
160 160 157 156 156 161 164 167 157 162 170 165 164 158 154 150 147 145 141 139 159 155 161 165 185 153 86 80 146 209 192 195 117 102 116 128 129 262 225 192 154 151 144 166 221 208 161 152 135 89 177 135 81 128 81 151 73 140 159 131 309 6 66 14 88 317 350 183 331 202 92 300 155 223 248 250 324 11 104 271 295 251 256 266 250 244 233 227
158 157 150 154 158 161 164 166 153 163 167 158 158 155 146 151 144 138 140 139 156 158 157 153 101 180 106 108 238 227 212 144 107 100 78 88 114 68 80 64 112 134 157 144 191 191 162 143 126 83 37 99 150 121 169 76 25 105 42 119 45 12 343 341 311 330 38 246 343 261 252 261 256 250 269 327 342 350 42 276 277 275 274 274 270 245 250 244
156 155 154 156 158 159 167 156 145 165 163 154 158 156 152 149 147 140 139 152 164 153 153 146 118 159 127 225 272 241 191 114 101 85 105 137 80 43 37 22 51 50 27 98 73 131 113 98 94 115 131 100 136 224 68 1 18 131 199 58 152 119 246 317 28 317 140 315 352 164 214 278 272 283 299 343 333 190 272 274 287 282 281 262 257 256 249 246
154 154 156 156 153 151 155 146 150 165 152 150 159 153 152 153 147 138 141 142 172 161 144 110 70 110 105 269 339 303 130 121 108 171 184 138 127 66 45 41 51 47 84 108 130 112 132 110 91 57 83 289 111 84 39 43 14 40 85 257 327 165 271 297 62 25 174 10 29 92 296 250 260 257 285 323 15 147 237 280 286 283 268 264 255 251 251 247
154 155 155 156 149 147 147 145 156 161 139 155 158 142 147 148 143 134 138 145 145 136 137 135 333 122 103 169 189 106 91 141 202 198 278 149 140 144 161 121 123 30 60 38 56 110 40 79 74 172 120 35 68 101 76 80 345 355 127 244 180 140 243 342 40 51 327 279 4 162 226 328 325 282 261 318 64 92 202 286 276 274 267 260 250 243 247 266
153 153 154 151 145 143 142 142 151 148 141 157 134 128 129 141 146 130 131 129 127 120 158 178 166 193 144 269 116 148 200 225 359 65 91 8 142 147 107 68 56 77 65 73 15 54 359 63 273 52 26 121 156 105 96 27 331 232 33 148 210 161 218 255 306 292 12 100 216 10 223 231 239 280 288 303 275 327 298 268 273 266 261 258 258 248 250 246
152 152 150 147 144 144 143 147 148 140 157 135 132 146 143 157 130 114 109 99 143 127 117 114 133 114 248 123 182 211 119 136 166 156 74 310 116 98 99 103 55 101 90 85 355 75 327 68 19 162 39 48 128 107 141 198 186 190 150 86 213 313 215 225 147 223 24 24 188 318 270 271 272 283 283 268 241 215 252 251 259 266 261 260 246 248 245 248
147 150 150 149 146 147 147 148 159 161 156 144 147 154 145 131 97 80 103 21 117 86 127 194 157 165 201 203 119 65 155 152 107 88 148 137 37 109 70 83 99 121 100 80 260 112 345 75 39 87 154 140 189 180 179 202 130 160 165 178 151 154 211 212 243 279 175 193 233 210 225 261 281 287 286 281 162 216 265 282 276 267 259 257 248 247 243 240
142 146 150 153 150 149 150 160 164 163 163 152 159 135 87 94 77 137 350 32 92 172 240 203 119 134 69 30 130 209 10 76 129 345 127 282 134 87 44 77 35 59 113 156 127 80 136 133 170 186 190 183 182 158 156 175 140 118 80 96 169 170 281 273 277 271 17 112 244 237 267 274 274 269 272 278 234 277 279 274 264 261 262 255 253 242 241 239
148 147 155 153 151 154 158 165 165 167 166 165 167 154 159 174 139 186 164 207 181 98 1 319 137 146 109 139 291 147 125 3 59 139 202 145 221 125 229 44 63 80 3 184 132 233 66 133 221 198 185 175 154 128 110 75 55 131 134 146 204 181 180 195 140 354 326 149 295 36 313 271 262 272 267 275 8 260 244 253 263 259 248 253 249 257 247 248
155 155 153 150 153 158 161 167 167 168 158 97 139 187 268 214 219 208 121 124 269 118 69 224 267 49 331 153 280 127 64 94 77 21 322 153 156 143 261 107 134 153 228 116 59 92 142 199 219 203 129 93 89 90 70 118 110 52 138 152 113 257 241 293 305 325 333 118 263 4 328 275 268 260 266 255 246 243 227 217 239 251 268 255 246 249 271 289
154 156 148 149 156 158 164 165 169 156 131 150 196 226 229 233 327 281 98 87 93 316 78 72 116 74 19 313 252 167 89 133 170 249 229 17 115 140 142 110 118 130 77 160 154 131 180 281 242 143 140 110 55 77 98 74 67 113 97 104 197 243 141 248 271 339 7 92 318 310 324 284 283 279 261 263 247 270 271 259 260 246 255 257 258 268 276 276
154 153 152 152 155 160 158 165 142 122 183 184 164 212 244 301 23 15 74 146 137 329 73 214 146 165 169 146 210 106 104 210 120 190 309 116 137 200 99 130 120 122 182 177 152 163 181 254 338 138 146 136 126 105 120 115 139 335 133 134 136 158 237 149 180 200 317 59 63 334 292 298 327 328 325 328 333 310 288 322 272 259 248 271 293 286 243 253
151 153 151 152 155 153 160 137 134 162 99 71 287 252 253 249 92 165 97 57 25 26 156 42 130 250 182 59 12 127 213 88 23 250 272 122 141 88 145 177 110 189 149 157 104 116 241 331 146 112 111 96 117 139 195 130 98 353 229 174 191 177 138 248 39 114 22 331 5 53 339 315 305 293 247 286 343 324 294 331 289 305 303 304 284 273 288 266
150 151 152 154 152 155 149 145 184 120 142 200 217 247 227 223 200 144 97 74 162 248 48 185 165 193 139 91 25 139 118 122 278 239 67 233 178 133 117 61 92 192 144 133 157 165 194 8 126 159 146 135 143 170 211 151 166 122 254 158 147 143 128 128 132 78 70 151 353 355 163 265 327 314 290 327 326 298 305 256 291 313 315 311 290 293 295 290
149 151 153 155 158 154 151 190 126 114 137 251 236 205 226 198 231 132 64 16 257 180 149 295 73 191 69 255 140 118 125 242 2 25 40 341 107 329 132 180 38 32 156 157 65 242 91 84 81 80 102 125 131 198 228 147 128 214 248 126 115 117 133 162 114 110 174 258 267 49 97 185 307 289 274 305 299 289 305 311 333 334 333 332 326 310 308 305
151 152 153 158 162 163 59 117 139 177 198 231 121 153 167 207 151 52 79 111 241 141 146 237 237 349 86 312 52 128 203 166 104 223 79 292 127 11 91 196 159 160 179 109 186 286 124 157 156 134 96 130 185 205 191 149 135 225 215 149 142 142 143 121 96 104 130 354 273 341 348 329 258 267 310 5 344 322 298 312 318 326 337 339 340 344 342 336
152 154 156 158 163 144 122 139 172 186 226 69 200 122 139 116 85 111 120 130 247 89 291 111 274 73 13 333 51 21 67 19 127 262 311 344 31 169 89 193 121 113 32 160 171 205 333 161 202 150 143 192 230 321 166 153 112 249 130 98 96 84 71 92 98 83 347 76 268 200 11 186 277 276 327 334 271 276 273 294 291 290 304 315 333 342 347 351
154 155 159 157 153 127 123 77 183 231 56 123 148 137 111 93 118 120 101 230 125 196 97 191 148 188 147 136 27 359 102 343 109 342 31 139 337 39 21 152 116 94 72 31 78 178 208 334 181 97 184 173 129 39 110 36 124 133 137 84 45 40 31 33 59 80 64 348 253 255 316 145 305 268 232 132 213 210 285 298 280 301 322 325 324 327 345 347
157 158 159 159 161 157 115 143 229 191 140 111 190 165 110 42 139 108 175 222 70 55 33 165 163 104 145 148 161 314 83 358 100 139 113 335 19 46 154 57 44 55 61 24 47 334 28 12 72 294 67 114 103 79 30 91 102 123 112 130 82 6 12 29 348 31 124 264 261 282 306 331 174 289 292 235 272 215 189 160 255 321 316 320 336 346 348 348
155 159 157 157 152 143 158 218 171 125 146 126 135 159 134 110 7 183 206 61 142 196 172 180 254 164 172 174 146 159 138 40 74 151 152 174 153 148 207 152 166 89 168 171 191 8 57 123 222 25 217 122 132 91 359 10 351 86 95 95 113 221 36 281 8 247 211 197 252 352 151 28 241 235 229 282 251 252 218 212 224 268 295 320 338 345 334 325
155 159 155 153 137 154 199 132 115 126 107 84 174 107 119 121 190 206 176 179 253 145 216 148 173 178 173 139 170 151 119 151 208 148 101 83 135 242 303 169 185 138 184 199 111 101 273 287 64 236 65 230 153 125 138 139 275 116 141 145 113 125 104 217 272 271 312 286 267 295 257 264 251 281 248 241 250 217 217 227 238 245 260 293 311 325 331 333
159 154 156 161 139 151 112 117 124 120 114 126 148 91 53 152 214 187 158 203 170 353 81 121 92 66 153 175 183 162 126 304 156 178 128 165 144 180 242 285 143 72 79 145 149 187 131 284 246 151 209 160 188 167 173 153 159 202 51 147 173 139 154 202 193 196 212 197 277 272 87 232 129 238 213 215 242 262 253 254 259 257 258 269 287 288 301 345
157 154 147 147 157 69 122 126 135 136 117 124 167 168 170 203 206 170 177 192 238 73 73 159 132 141 193 13 297 203 122 138 193 116 152 144 192 189 185 199 227 117 139 127 258 102 202 198 285 315 268 151 168 249 114 100 48 4 158 79 96 213 131 131 206 143 173 154 22 242 217 190 183 261 269 252 293 280 280 268 253 276 312 298 37 48 30 22
153 157 152 159 179 166 125 136 110 112 136 152 145 187 199 194 203 183 195 135 126 120 117 67 67 143 163 61 335 197 321 110 204 127 210 197 207 193 197 188 183 192 162 172 171 165 36 237 355 307 49 85 163 164 355 132 169 220 102 196 205 112 99 101 54 6 90 43 251 164 314 284 297 312 282 7 333 261 326 30 213 233 322 87 93 78 71 52
156 144 166 162 188 144 140 127 119 111 136 176 171 202 208 32 184 135 128 149 177 132 136 137 233 153 172 200 172 192 205 86 173 132 204 150 276 201 201 231 180 188 220 126 240 212 153 196 357 55 122 344 284 122 102 40 142 100 177 220 170 141 126 128 184 351 61 176 263 102 221 283 35 266 332 354 185 259 281 251 223 215 139 116 121 109 105 94
153 155 134 163 170 138 128 136 116 97 133 180 198 206 31 143 342 100 192 104 119 144 130 157 216 99 197 149 206 180 208 167 184 172 181 180 237 190 185 188 194 188 194 289 150 227 120 78 353 343 91 285 15 12 54 32 43 139 199 180 111 193 217 311 92 221 183 259 267 301 290 271 195 239 350 239 205 229 235 224 173 140 143 140 130 114 102 35
144 154 158 173 127 147 136 132 117 125 155 186 215 208 257 207 91 158 226 150 129 124 154 214 132 231 145 186 168 168 166 183 163 186 149 237 204 200 185 166 207 199 166 154 116 142 62 138 287 346 135 267 5 110 188 189 345 27 88 86 308 103 156 133 198 177 126 239 67 290 48 243 200 218 200 241 216 207 178 170 190 176 162 151 142 144 150 166
152 159 150 131 157 135 137 125 109 148 177 199 202 206 109 104 204 266 293 159 167 117 211 159 230 129 166 196 154 165 210 169 169 194 205 190 197 296 197 203 165 183 159 109 120 154 154 105 159 274 302 90 173 199 211 165 149 81 112 182 100 35 228 103 22 127 183 172 185 207 316 275 255 213 200 227 217 185 179 166 176 179 180 157 152 154 166 171
266 115 98 103 136 146 126 108 131 186 196 345 61 163 220 182 177 213 295 90 107 329 150 150 158 160 170 110 194 150 150 138 180 183 189 186 193 209 214 189 148 159 124 59 92 184 89 172 159 144 72 221 240 260 211 172 191 171 165 186 172 128 137 159 246 36 96 124 220 136 248 273 271 179 207 218 227 201 217 175 163 180 175 162 171 185 163 130
165 137 160 48 121 168 142 149 198 128 99 142 181 165 165 126 76 169 88 337 82 127 3 98 13 124 147 169 155 163 140 171 174 182 228 196 218 210 287 135 151 148 152 181 183 220 139 125 106 167 207 183 229 338 262 257 24 190 162 222 168 168 97 113 196 234 62 345 100 159 330 269 244 201 215 234 221 230 221 196 176 175 181 179 187 198 216 220
40 98 128 341 222 173 146 175 110 132 154 233 318 45 1 60 129 208 141 286 88 105 69 93 190 120 280 129 162 154 164 184 172 196 187 209 234 201 209 151 127 157 115 89 60 206 96 97 82 347 328 312 327 319 52 196 141 333 279 103 148 199 187 178 165 174 151 147 102 1 251 255 289 241 240 248 242 250 250 200 189 176 187 195 197 170 84 77
35 90 44 341 104 138 165 182 185 198 148 19 79 115 313 167 125 122 206 199 144 135 153 150 35 347 157 132 139 171 184 152 243 196 255 167 205 37 156 158 154 166 163 194 174 196 158 235 127 132 34 350 343 348 347 348 34 212 197 194 200 73 78 131 102 65 102 213 168 132 229 272 272 310 297 216 215 198 227 220 208 175 189 204 192 201 328 354
120 64 47 340 44 106 180 8 180 166 134 154 136 138 136 42 282 186 153 180 80 149 118 182 183 147 90 173 137 121 193 177 156 227 115 197 184 38 354 170 187 172 165 228 89 150 160 171 141 153 169 167 193 193 216 216 209 187 223 177 184 163 141 135 186 163 192 275 148 162 240 253 280 324 346 347 86 84 212 212 227 233 185 186 196 195 94 48
350 120 293 27 17 52 37 23 73 128 153 151 148 205 127 118 349 307 113 79 174 110 51 127 22 91 97 124 136 159 197 263 125 186 184 208 204 348 267 309 205 177 273 134 148 144 170 155 190 185 191 202 202 203 194 79 68 170 215 173 187 184 173 124 104 108 211 193 175 231 223 212 228 258 278 235 157 167 179 195 198 190 226 230 241 216 123 91
30 73 147 143 46 11 74 23 74 88 167 167 177 154 182 158 135 90 205 124 223 157 90 54 177 138 228 150 165 184 197 181 351 115 198 161 255 233 332 142 122 2 10 110 160 97 88 178 215 200 218 219 210 162 195 160 175 201 165 188 181 165 171 163 172 212 165 91 254 233 224 214 233 243 244 230 221 217 194 193 191 199 206 195 193 135 84 81
83 354 43 300 112 184 148 242 179 128 9 158 202 132 178 146 169 164 14 343 58 329 130 343 306 258 169 173 148 155 166 178 152 202 63 18 105 338 71 1 143 310 10 134 255 145 146 195 220 179 232 224 121 170 167 158 185 178 182 166 164 173 165 180 211 217 123 196 226 234 178 217 230 191 211 209 190 191 196 198 196 168 157 146 123 130 146 154
67 86 64 337 94 4 29 115 140 149 97 180 90 157 175 178 189 186 154 112 30 230 178 179 207 205 188 188 157 164 161 153 238 213 163 164 169 132 105 43 293 349 128 109 143 182 131 228 190 177 216 222 224 154 195 161 161 132 175 179 176 164 186 195 213 215 183 216 225 231 153 221 210 195 203 211 207 197 193 86 101 163 192 159 144 159 163 156
283 124 138 27 69 70 87 115 140 144 163 210 172 213 175 186 187 159 311 146 170 240 23 186 188 152 172 168 164 162 198 197 182 187 207 136 110 142 188 184 155 6 22 160 165 264 157 246 144 149 193 244 219 155 145 184 152 187 209 184 176 182 192 200 210 221 214 237 246 181 202 264 244 194 215 230 208 105 69 165 200 190 159 169 170 170 162 158
93 75 106 127 95 168 86 137 137 156 160 182 200 226 193 191 194 166 184 202 161 169 173 191 148 110 81 125 131 161 187 139 154 189 178 168 178 202 154 236 154 153 172 141 154 157 158 240 45 109 185 265 277 177 178 84 61 120 163 175 191 189 200 213 211 214 193 211 231 244 268 258 237 164 217 219 187 181 198 202 202 205 209 182 174 173 166 165
59 2 97 91 95 158 151 154 135 126 192 203 180 185 188 216 169 154 129 254 187 180 170 150 174 133 150 149 193 184 192 160 125 135 138 90 101 99 48 164 161 156 169 172 147 149 175 141 150 159 179 226 339 137 120 106 64 301 242 208 199 200 203 209 222 207 197 196 206 201 230 240 174 176 193 209 187 208 209 197 212 222 205 185 181 174 171 167